User: anonymous
Location: Mount Wilson Observatory
(34.2257°N, 118.0571°W)
Time: 01:24:04
(UTC-07:00)
Language:

ATLAS 3B CENTAUR R/B - Orbit

View from above orbital plane
View from above orbital plane
View from above satellite
View from above satellite

Ground track
Ground track

The orbit data is extracted from the following two-line orbital elements,

1 28118U 03057B   14114.45261273  .00082828  00000-0  17669-2 0  4912
2 28118 028.1662 222.8183 3943861 303.5809 067.6143 07.62731355191473
Epoch (UTC): 24 April 2014 10:51:45
Eccentricity: 0.3943861
inclination: 28.1662°
perigee height: 224 km
apogee height: 8823 km
right ascension of ascending node: 222.8183°
argument of perigee: 303.5809°
revolutions per day: 7.62731355
mean anomaly at epoch: 67.6143°
orbit number at epoch: 19147

The dashed part of the orbit path shows where the satellite is in the earth's shadow,  

DLR